LOT3KL EPWA-EPKT

Flight info

Callsign LOT3KL
Flight time 0h 33m
Altitude 22000
Route EVINA M66 KUKAM
Aircraft B738/M-SDE2E3FGHIRWXY/LB1

Departure

Time 2026-05-01 12:47
Airport Warsaw Chopin Airport (EPWA)

Arrival

Time 2026-05-01 13:20
Airport Katowice Wojciech Korfanty International Airport (EPKT)
Time Latitude Longitude Altitude Speed Heading
2026-05-01 12:17 52.17314 20.96582 331 ft 0 kts 242°
2026-05-01 12:40 52.17310 20.96571 335 ft 5 kts 242°
2026-05-01 12:41 52.17286 20.96512 334 ft 1 kts 210°
2026-05-01 12:41 52.17254 20.96520 332 ft 11 kts 156°
2026-05-01 12:41 52.17164 20.96599 334 ft 19 kts 151°
2026-05-01 12:41 52.17030 20.96713 332 ft 23 kts 152°
2026-05-01 12:42 52.16890 20.96837 331 ft 23 kts 152°
2026-05-01 12:42 52.16753 20.96956 335 ft 22 kts 152°
2026-05-01 12:42 52.16645 20.97116 333 ft 21 kts 115°
2026-05-01 12:42 52.16587 20.97324 332 ft 17 kts 114°
2026-05-01 12:43 52.16540 20.97494 331 ft 16 kts 114°
2026-05-01 12:43 52.16494 20.97658 333 ft 16 kts 114°
2026-05-01 12:43 52.16450 20.97802 331 ft 11 kts 132°
2026-05-01 12:43 52.16418 20.97811 335 ft 8 kts 199°
2026-05-01 12:44 52.16337 20.97751 336 ft 14 kts 205°
2026-05-01 12:44 52.16307 20.97673 333 ft 6 kts 276°
2026-05-01 12:44 52.16315 20.97637 332 ft 0 kts 295°
2026-05-01 12:46 52.16317 20.97631 333 ft 3 kts 295°
2026-05-01 12:46 52.16422 20.97259 332 ft 77 kts 294°
2026-05-01 12:46 52.16750 20.96092 337 ft 147 kts 294°
2026-05-01 12:47 52.17197 20.94415 921 ft 160 kts 297°
2026-05-01 12:47 52.17669 20.92745 1881 ft 162 kts 298°
2026-05-01 12:47 52.18135 20.91004 2674 ft 179 kts 289°
2026-05-01 12:47 52.18108 20.88882 3416 ft 199 kts 261°
2026-05-01 12:48 52.17770 20.86635 4230 ft 208 kts 259°
2026-05-01 12:48 52.17436 20.84287 4900 ft 217 kts 260°
2026-05-01 12:48 52.17103 20.81818 5553 ft 231 kts 261°
2026-05-01 12:48 52.16745 20.79095 5914 ft 263 kts 261°
2026-05-01 12:49 52.16356 20.76073 6596 ft 278 kts 261°
2026-05-01 12:49 52.15928 20.72945 7443 ft 286 kts 256°
2026-05-01 12:49 52.14944 20.70116 8270 ft 300 kts 228°
2026-05-01 12:49 52.13347 20.67894 9230 ft 305 kts 220°
2026-05-01 12:50 52.11642 20.65758 10033 ft 314 kts 219°
2026-05-01 12:50 52.09877 20.63580 10725 ft 326 kts 218°
2026-05-01 12:50 52.07999 20.61252 10982 ft 352 kts 219°
2026-05-01 12:50 52.06022 20.58785 11592 ft 363 kts 219°
2026-05-01 12:51 52.04003 20.56253 12375 ft 369 kts 219°
2026-05-01 12:51 52.01960 20.53685 13186 ft 375 kts 219°
2026-05-01 12:51 51.97771 20.48414 14673 ft 387 kts 218°
2026-05-01 12:52 51.95603 20.45795 15396 ft 391 kts 211°
2026-05-01 12:52 51.90384 20.43615 16907 ft 392 kts 182°
2026-05-01 12:52 51.87650 20.43241 17616 ft 397 kts 181°
2026-05-01 12:53 51.82089 20.42513 19046 ft 403 kts 181°
2026-05-01 12:53 51.79303 20.42114 19887 ft 400 kts 181°
2026-05-01 12:53 51.76534 20.41702 20627 ft 401 kts 181°
2026-05-01 12:54 51.73738 20.41280 21238 ft 405 kts 181°
2026-05-01 12:54 51.68086 20.40419 22602 ft 409 kts 181°
2026-05-01 12:54 51.65254 20.39988 23393 ft 408 kts 181°
2026-05-01 12:55 51.59602 20.39133 24272 ft 408 kts 180°
2026-05-01 12:55 51.56781 20.38707 24306 ft 407 kts 180°
2026-05-01 12:55 51.53997 20.38287 24309 ft 407 kts 180°
2026-05-01 12:56 51.51187 20.37864 24317 ft 406 kts 180°
2026-05-01 12:56 51.48376 20.37441 24318 ft 406 kts 180°
2026-05-01 12:56 51.45570 20.37018 24311 ft 402 kts 180°
2026-05-01 12:56 51.42798 20.36600 24301 ft 398 kts 180°
2026-05-01 12:57 51.40051 20.36188 24303 ft 396 kts 180°
2026-05-01 12:57 51.34621 20.34180 24140 ft 406 kts 195°
2026-05-01 12:57 51.31956 20.32726 23860 ft 404 kts 196°
2026-05-01 12:58 51.29309 20.31247 23465 ft 402 kts 196°
2026-05-01 12:58 51.27562 20.30282 23222 ft 400 kts 195°
2026-05-01 12:58 51.24940 20.28859 22858 ft 396 kts 195°
2026-05-01 12:59 51.19748 20.26119 22126 ft 390 kts 195°
2026-05-01 12:59 51.17176 20.24785 21766 ft 388 kts 194°
2026-05-01 12:59 51.12074 20.22152 21028 ft 384 kts 194°
2026-05-01 13:00 51.07008 20.19547 20289 ft 381 kts 195°
2026-05-01 13:00 51.04496 20.18256 19956 ft 378 kts 195°
2026-05-01 13:01 50.99514 20.15699 19289 ft 374 kts 195°
2026-05-01 13:01 50.97046 20.14434 18959 ft 372 kts 195°
2026-05-01 13:01 50.92141 20.11926 18257 ft 369 kts 195°
2026-05-01 13:02 50.89706 20.10684 17892 ft 366 kts 195°
2026-05-01 13:07 50.52788 19.60053 8516 ft 298 kts 228°
2026-05-01 13:07 50.51368 19.57725 8161 ft 292 kts 228°
2026-05-01 13:07 50.49975 19.55446 7793 ft 287 kts 228°
2026-05-01 13:08 50.48603 19.53205 7447 ft 281 kts 228°
2026-05-01 13:08 50.47536 19.50724 7064 ft 271 kts 257°
2026-05-01 13:08 50.47357 19.47865 6752 ft 261 kts 275°
2026-05-01 13:08 50.47412 19.45031 6388 ft 256 kts 275°
2026-05-01 13:09 50.47446 19.42300 5939 ft 246 kts 274°
2026-05-01 13:09 50.47472 19.39655 5469 ft 239 kts 274°
2026-05-01 13:09 50.47493 19.37088 4973 ft 232 kts 274°
2026-05-01 13:09 50.47507 19.34596 4439 ft 224 kts 274°
2026-05-01 13:10 50.47519 19.32217 4088 ft 211 kts 274°
2026-05-01 13:10 50.47537 19.29989 3815 ft 197 kts 276°
2026-05-01 13:10 50.47569 19.27903 3529 ft 186 kts 274°
2026-05-01 13:10 50.47577 19.25936 3257 ft 175 kts 275°
2026-05-01 13:11 50.47578 19.24074 2969 ft 165 kts 275°
2026-05-01 13:11 50.47578 19.22363 2846 ft 153 kts 274°
2026-05-01 13:11 50.47581 19.20699 2859 ft 153 kts 276°
2026-05-01 13:11 50.47470 19.18959 2901 ft 177 kts 256°
2026-05-01 13:12 50.46875 19.17155 3029 ft 195 kts 236°
2026-05-01 13:12 50.45881 19.15703 3135 ft 198 kts 214°
2026-05-01 13:12 50.44590 19.14930 3417 ft 202 kts 190°
2026-05-01 13:12 50.43151 19.14941 3677 ft 214 kts 169°
2026-05-01 13:13 50.41678 19.15792 3934 ft 238 kts 149°
2026-05-01 13:13 50.40357 19.17392 3974 ft 241 kts 130°
2026-05-01 13:13 50.39412 19.19549 3974 ft 241 kts 112°
2026-05-01 13:13 50.38883 19.22001 3994 ft 238 kts 102°
2026-05-01 13:14 50.38463 19.24521 4004 ft 238 kts 101°
2026-05-01 13:14 50.38060 19.27032 4005 ft 237 kts 101°
2026-05-01 13:14 50.37660 19.29546 4013 ft 238 kts 101°
2026-05-01 13:14 50.37267 19.32072 4005 ft 238 kts 97°
2026-05-01 13:15 50.37417 19.34565 3957 ft 227 kts 59°
2026-05-01 13:15 50.38485 19.36198 3868 ft 212 kts 19°
2026-05-01 13:15 50.39877 19.36213 3820 ft 200 kts 336°
2026-05-01 13:15 50.40850 19.34705 3717 ft 201 kts 300°
2026-05-01 13:16 50.41557 19.32902 3592 ft 189 kts 315°
2026-05-01 13:16 50.42561 19.31640 3475 ft 184 kts 330°
2026-05-01 13:16 50.43625 19.30486 3389 ft 188 kts 326°
2026-05-01 13:17 50.46659 19.26970 3032 ft 178 kts 322°
2026-05-01 13:17 50.47284 19.25348 2965 ft 177 kts 288°
2026-05-01 13:18 50.47562 19.21746 2562 ft 152 kts 277°
2026-05-01 13:18 50.47581 19.20070 2336 ft 153 kts 276°
2026-05-01 13:18 50.47584 19.18420 2122 ft 149 kts 275°
2026-05-01 13:18 50.47578 19.16808 1920 ft 148 kts 275°
2026-05-01 13:19 50.47585 19.15156 1715 ft 154 kts 275°
2026-05-01 13:19 50.47589 19.13501 1481 ft 152 kts 274°
2026-05-01 13:19 50.47592 19.10298 1063 ft 147 kts 275°
2026-05-01 13:20 50.47602 19.08765 993 ft 122 kts 270°
2026-05-01 13:20 50.47602 19.07769 988 ft 61 kts 270°
2026-05-01 13:20 50.47596 19.07254 990 ft 37 kts 261°
2026-05-01 13:21 50.47441 19.06870 988 ft 12 kts 139°
2026-05-01 13:21 50.47428 19.06992 986 ft 11 kts 90°
2026-05-01 13:21 50.47427 19.07113 986 ft 11 kts 90°
2026-05-01 13:21 50.47427 19.07230 986 ft 11 kts 89°
2026-05-01 13:22 50.47427 19.07343 986 ft 10 kts 90°
2026-05-01 13:22 50.47401 19.07435 990 ft 10 kts 154°
2026-05-01 13:22 50.47332 19.07443 986 ft 10 kts 181°
2026-05-01 13:22 50.47257 19.07432 986 ft 11 kts 208°
2026-05-01 13:23 50.47236 19.07325 989 ft 10 kts 268°
2026-05-01 13:23 50.47234 19.07232 990 ft 1 kts 257°
2026-05-01 13:23 50.47226 19.07220 990 ft 3 kts 217°
2026-05-01 13:23 50.47197 19.07212 986 ft 5 kts 180°
2026-05-01 13:24 50.47179 19.07212 988 ft 0 kts 180°